Location: Maiden
(35.5760°N, 81.2120°W)
Time: 03:13:22
(UTC-04:00)

ATLAS 5 CENTAUR R/B - Pass Details

Date: 02 August 2020
Orbit: 534 x 1124 km, 63.4° (Epoch: 06 August)

Event Time Altitude Azimuth Distance (km) Brightness Sun altitude
Rises 22:01:13 0° 342° (NNW) 3,313 6.2 -17.4°
Reaches altitude 10° 22:04:14 10° 0° (N) 2,492 5.2 -17.9°
Maximum altitude 22:08:26 20° 46° (NE) 2,015 4.1 -18.5°
Enters shadow 22:11:20 15° 79° (ENE) 2,373 4.2 -19.0°
